Time,TemperatureF,DewpointF,PressureIn,WindDirection,WindDirectionDegrees,WindSpeedMPH,WindSpeedGustMPH,Humidity,HourlyPrecipIn,Conditions,Clouds,dailyrainin,SoftwareType,DateUTC
2013-08-25 00:03:00,82.1,75.0,29.95,East,84,1.0,5.0,79,0.00,,,0.00,weatherlink.com 1.10,2013-08-25 04:03:00,
2013-08-25 00:18:00,82.1,75.0,29.95,East,93,0.0,4.0,80,0.00,,,0.00,weatherlink.com 1.10,2013-08-25 04:18:00,
2013-08-25 00:33:00,82.0,76.0,29.95,East,80,2.0,4.0,81,0.00,,,0.00,weatherlink.com 1.10,2013-08-25 04:33:00,
2013-08-25 00:48:00,81.7,76.0,29.95,East,95,0.0,1.0,82,0.00,,,0.00,weatherlink.com 1.10,2013-08-25 04:48:00,
2013-08-25 01:03:00,81.6,76.0,29.94,ESE,105,2.0,3.0,82,0.00,,,0.00,weatherlink.com 1.10,2013-08-25 05:03:00,
2013-08-25 01:18:00,81.4,75.0,29.95,East,96,0.0,3.0,82,0.00,,,0.00,weatherlink.com 1.10,2013-08-25 05:18:00,
2013-08-25 01:33:00,81.4,75.0,29.94,East,98,0.0,4.0,82,0.00,,,0.00,weatherlink.com 1.10,2013-08-25 05:33:00,
2013-08-25 01:48:00,81.2,75.0,29.94,SSE,162,1.0,2.0,82,0.00,,,0.00,weatherlink.com 1.10,2013-08-25 05:48:00,
2013-08-25 02:03:00,80.8,75.0,29.93,ESE,115,1.0,2.0,83,0.00,,,0.00,weatherlink.com 1.10,2013-08-25 06:03:00,
2013-08-25 02:18:00,80.7,75.0,29.93,East,94,0.0,1.0,83,0.00,,,0.00,weatherlink.com 1.10,2013-08-25 06:18:00,
2013-08-25 02:33:00,80.5,75.0,29.92,East,95,0.0,1.0,84,0.00,,,0.00,weatherlink.com 1.10,2013-08-25 06:33:00,
2013-08-25 02:48:00,80.4,75.0,29.92,ESE,123,0.0,1.0,84,0.00,,,0.00,weatherlink.com 1.10,2013-08-25 06:48:00,
2013-08-25 03:03:00,80.3,75.0,29.91,East,98,0.0,4.0,84,0.00,,,0.00,weatherlink.com 1.10,2013-08-25 07:03:00,
2013-08-25 03:18:00,80.8,75.0,29.92,ESE,104,0.0,2.0,83,0.00,,,0.00,weatherlink.com 1.10,2013-08-25 07:18:00,
2013-08-25 03:33:00,80.6,75.0,29.92,SSE,148,0.0,1.0,84,0.00,,,0.00,weatherlink.com 1.10,2013-08-25 07:33:00,
2013-08-25 03:48:00,80.8,76.0,29.92,East,94,1.0,5.0,84,0.00,,,0.00,weatherlink.com 1.10,2013-08-25 07:48:00,
2013-08-25 04:03:00,81.2,76.0,29.92,ESE,106,2.0,5.0,83,0.00,,,0.00,weatherlink.com 1.10,2013-08-25 08:03:00,
2013-08-25 04:18:00,81.5,76.0,29.92,ESE,110,1.0,4.0,82,0.00,,,0.00,weatherlink.com 1.10,2013-08-25 08:18:00,
2013-08-25 04:33:00,81.4,76.0,29.92,East,101,0.0,1.0,83,0.00,,,0.00,weatherlink.com 1.10,2013-08-25 08:33:00,
2013-08-25 04:48:00,81.2,76.0,29.92,ESE,102,0.0,4.0,84,0.00,,,0.00,weatherlink.com 1.10,2013-08-25 08:48:00,
2013-08-25 05:03:00,81.4,76.0,29.92,ENE,73,4.0,5.0,84,0.00,,,0.00,weatherlink.com 1.10,2013-08-25 09:03:00,
2013-08-25 05:18:00,81.7,76.0,29.93,East,79,5.0,5.0,83,0.00,,,0.00,weatherlink.com 1.10,2013-08-25 09:18:00,
2013-08-25 05:34:00,81.4,76.0,29.93,ENE,77,2.0,5.0,84,0.00,,,0.00,weatherlink.com 1.10,2013-08-25 09:34:00,
2013-08-25 05:49:00,81.2,76.0,29.93,East,82,3.0,5.0,84,0.00,,,0.00,weatherlink.com 1.10,2013-08-25 09:49:00,
2013-08-25 06:04:00,81.2,76.0,29.93,ESE,122,4.0,6.0,83,0.00,,,0.00,weatherlink.com 1.10,2013-08-25 10:04:00,
2013-08-25 06:19:00,81.4,75.0,29.94,East,92,3.0,7.0,82,0.00,,,0.00,weatherlink.com 1.10,2013-08-25 10:19:00,
2013-08-25 06:34:00,81.4,75.0,29.94,ENE,75,2.0,7.0,82,0.00,,,0.00,weatherlink.com 1.10,2013-08-25 10:34:00,
2013-08-25 06:49:00,81.5,76.0,29.94,East,93,2.0,7.0,83,0.00,,,0.00,weatherlink.com 1.10,2013-08-25 10:49:00,
2013-08-25 07:04:00,81.8,76.0,29.94,East,93,3.0,7.0,82,0.00,,,0.00,weatherlink.com 1.10,2013-08-25 11:04:00,
2013-08-25 07:19:00,82.3,76.0,29.95,East,84,3.0,10.0,82,0.00,,,0.00,weatherlink.com 1.10,2013-08-25 11:19:00,
2013-08-25 07:34:00,82.7,77.0,29.95,NE,53,3.0,11.0,82,0.00,,,0.00,weatherlink.com 1.10,2013-08-25 11:34:00,
2013-08-25 07:49:00,83.3,77.0,29.96,ESE,102,5.0,9.0,80,0.00,,,0.00,weatherlink.com 1.10,2013-08-25 11:49:00,
2013-08-25 08:04:00,83.2,76.0,29.96,ESE,105,4.0,8.0,80,0.00,,,0.00,weatherlink.com 1.10,2013-08-25 12:04:00,
2013-08-25 08:19:00,83.0,77.0,29.96,East,96,4.0,12.0,81,0.00,,,0.00,weatherlink.com 1.10,2013-08-25 12:19:00,
2013-08-25 08:34:00,83.3,77.0,29.97,ENE,69,3.0,8.0,80,0.00,,,0.00,weatherlink.com 1.10,2013-08-25 12:34:00,
2013-08-25 08:49:00,83.4,77.0,29.97,NE,43,4.0,7.0,81,0.00,,,0.00,weatherlink.com 1.10,2013-08-25 12:49:00,
2013-08-25 09:04:00,83.7,77.0,29.98,NNE,33,4.0,8.0,81,0.00,,,0.00,weatherlink.com 1.10,2013-08-25 13:04:00,
2013-08-25 09:19:00,83.9,77.0,29.98,ENE,69,6.0,9.0,79,0.00,,,0.00,weatherlink.com 1.10,2013-08-25 13:19:00,
2013-08-25 09:34:00,84.1,77.0,29.99,ENE,78,6.0,10.0,78,0.00,,,0.00,weatherlink.com 1.10,2013-08-25 13:34:00,
2013-08-25 09:49:00,84.3,77.0,29.98,ESE,104,7.0,8.0,78,0.00,,,0.00,weatherlink.com 1.10,2013-08-25 13:49:00,
2013-08-25 10:04:00,84.5,77.0,29.98,ENE,58,8.0,10.0,78,0.00,,,0.00,weatherlink.com 1.10,2013-08-25 14:04:00,
2013-08-25 10:19:00,84.9,77.0,29.99,NE,53,9.0,12.0,78,0.00,,,0.00,weatherlink.com 1.10,2013-08-25 14:19:00,
2013-08-25 10:34:00,85.0,77.0,29.98,ESE,114,8.0,10.0,77,0.00,,,0.00,weatherlink.com 1.10,2013-08-25 14:34:00,
2013-08-25 10:49:00,86.1,78.0,29.97,East,91,3.0,12.0,76,0.00,,,0.00,weatherlink.com 1.10,2013-08-25 14:49:00,
2013-08-25 11:04:00,86.1,77.0,29.97,ENE,75,6.0,15.0,74,0.00,,,0.00,weatherlink.com 1.10,2013-08-25 15:04:00,
2013-08-25 11:19:00,86.4,76.0,29.97,East,94,9.0,17.0,71,0.00,,,0.00,weatherlink.com 1.10,2013-08-25 15:19:00,
2013-08-25 11:34:00,87.0,76.0,29.97,ENE,60,4.0,15.0,70,0.00,,,0.00,weatherlink.com 1.10,2013-08-25 15:34:00,
2013-08-25 11:49:00,87.5,76.0,29.96,ESE,107,9.0,13.0,69,0.00,,,0.00,weatherlink.com 1.10,2013-08-25 15:49:00,
2013-08-25 12:04:00,87.2,77.0,29.96,ESE,120,9.0,14.0,72,0.00,,,0.00,weatherlink.com 1.10,2013-08-25 16:04:00,
2013-08-25 12:19:00,87.9,78.0,29.96,ESE,107,5.0,13.0,72,0.00,,,0.00,weatherlink.com 1.10,2013-08-25 16:19:00,
2013-08-25 12:34:00,87.2,78.0,29.95,NE,53,8.0,16.0,74,0.00,,,0.00,weatherlink.com 1.10,2013-08-25 16:34:00,
2013-08-25 12:49:00,87.1,78.0,29.95,NE,46,4.0,15.0,73,0.00,,,0.00,weatherlink.com 1.10,2013-08-25 16:49:00,
2013-08-25 13:04:00,87.7,76.0,29.95,ENE,70,5.0,13.0,69,0.00,,,0.00,weatherlink.com 1.10,2013-08-25 17:04:00,
2013-08-25 13:19:00,88.5,75.0,29.94,ENE,70,7.0,12.0,64,0.00,,,0.00,weatherlink.com 1.10,2013-08-25 17:19:00,
2013-08-25 13:34:00,88.7,75.0,29.93,East,98,5.0,11.0,65,0.00,,,0.00,weatherlink.com 1.10,2013-08-25 17:34:00,
2013-08-25 13:49:00,88.0,77.0,29.93,ENE,74,2.0,13.0,69,0.00,,,0.00,weatherlink.com 1.10,2013-08-25 17:49:00,
2013-08-25 14:04:00,87.9,77.0,29.93,East,79,5.0,14.0,69,0.00,,,0.00,weatherlink.com 1.10,2013-08-25 18:04:00,
2013-08-25 14:19:00,87.9,77.0,29.93,ENE,77,6.0,12.0,71,0.00,,,0.00,weatherlink.com 1.10,2013-08-25 18:19:00,
2013-08-25 14:35:00,87.5,77.0,29.92,East,89,4.0,10.0,71,0.00,,,0.00,weatherlink.com 1.10,2013-08-25 18:35:00,
2013-08-25 14:50:00,86.7,77.0,29.92,North,11,8.0,13.0,72,0.00,,,0.00,weatherlink.com 1.10,2013-08-25 18:50:00,
2013-08-25 15:05:00,87.0,77.0,29.91,NNE,26,11.0,14.0,72,0.00,,,0.00,weatherlink.com 1.10,2013-08-25 19:05:00,
2013-08-25 15:20:00,85.0,75.0,29.92,ESE,110,14.0,16.0,72,0.00,,,0.00,weatherlink.com 1.10,2013-08-25 19:20:00,
2013-08-25 15:35:00,82.1,76.0,29.92,SE,138,3.0,10.0,81,0.00,,,0.00,weatherlink.com 1.10,2013-08-25 19:35:00,
2013-08-25 15:50:00,80.9,75.0,29.91,East,101,2.0,6.0,81,0.00,,,0.00,weatherlink.com 1.10,2013-08-25 19:50:00,
2013-08-25 16:05:00,82.2,74.0,29.91,SSE,162,1.0,4.0,77,0.00,,,0.00,weatherlink.com 1.10,2013-08-25 20:05:00,
2013-08-25 16:20:00,82.8,75.0,29.91,SSE,160,2.0,3.0,78,0.00,,,0.00,weatherlink.com 1.10,2013-08-25 20:20:00,
2013-08-25 16:35:00,83.5,76.0,29.91,SSE,155,2.0,3.0,77,0.00,,,0.00,weatherlink.com 1.10,2013-08-25 20:35:00,
2013-08-25 16:50:00,84.1,77.0,29.91,SSE,160,1.0,3.0,78,0.00,,,0.00,weatherlink.com 1.10,2013-08-25 20:50:00,
2013-08-25 17:05:00,84.0,77.0,29.91,SSE,156,1.0,2.0,80,0.00,,,0.00,weatherlink.com 1.10,2013-08-25 21:05:00,
2013-08-25 17:20:00,84.0,77.0,29.91,NNE,26,1.0,2.0,80,0.00,,,0.00,weatherlink.com 1.10,2013-08-25 21:20:00,
2013-08-25 17:35:00,81.7,77.0,29.91,South,172,1.0,12.0,84,0.12,,,0.12,weatherlink.com 1.10,2013-08-25 21:35:00,
2013-08-25 17:50:00,79.9,77.0,29.91,ESE,108,0.0,2.0,91,0.14,,,0.14,weatherlink.com 1.10,2013-08-25 21:50:00,
2013-08-25 18:05:00,79.8,78.0,29.92,SSE,147,0.0,1.0,93,0.14,,,0.14,weatherlink.com 1.10,2013-08-25 22:05:00,
2013-08-25 18:20:00,79.9,77.0,29.91,SE,141,1.0,2.0,92,0.14,,,0.14,weatherlink.com 1.10,2013-08-25 22:20:00,
2013-08-25 18:35:00,79.8,77.0,29.92,SSE,150,0.0,2.0,91,0.02,,,0.14,weatherlink.com 1.10,2013-08-25 22:35:00,
2013-08-25 18:50:00,79.5,76.0,29.92,SE,133,0.0,1.0,90,0.00,,,0.14,weatherlink.com 1.10,2013-08-25 22:50:00,
2013-08-25 19:05:00,79.0,76.0,29.93,SE,133,0.0,1.0,89,0.00,,,0.14,weatherlink.com 1.10,2013-08-25 23:05:00,
2013-08-25 19:20:00,79.4,76.0,29.92,SE,132,0.0,1.0,90,0.00,,,0.14,weatherlink.com 1.10,2013-08-25 23:20:00,
2013-08-25 19:35:00,79.5,77.0,29.93,SE,130,1.0,2.0,91,0.00,,,0.14,weatherlink.com 1.10,2013-08-25 23:35:00,
2013-08-25 19:50:00,78.6,76.0,29.93,East,90,1.0,4.0,90,0.00,,,0.14,weatherlink.com 1.10,2013-08-25 23:50:00,
2013-08-25 20:05:00,78.4,75.0,29.93,SE,143,0.0,3.0,89,0.00,,,0.14,weatherlink.com 1.10,2013-08-26 00:05:00,
2013-08-25 20:20:00,78.3,75.0,29.93,SSW,193,1.0,1.0,88,0.00,,,0.14,weatherlink.com 1.10,2013-08-26 00:20:00,
2013-08-25 20:35:00,78.4,75.0,29.94,SE,143,0.0,1.0,90,0.00,,,0.14,weatherlink.com 1.10,2013-08-26 00:35:00,
2013-08-25 20:50:00,78.5,75.0,29.94,East,89,0.0,1.0,90,0.03,,,0.17,weatherlink.com 1.10,2013-08-26 00:50:00,
2013-08-25 21:05:00,78.7,76.0,29.95,East,89,0.0,1.0,92,0.03,,,0.17,weatherlink.com 1.10,2013-08-26 01:05:00,
2013-08-25 21:20:00,78.5,76.0,29.95,East,89,0.0,1.0,92,0.03,,,0.17,weatherlink.com 1.10,2013-08-26 01:20:00,
2013-08-25 21:35:00,78.4,76.0,29.95,East,89,0.0,0.0,92,0.03,,,0.17,weatherlink.com 1.10,2013-08-26 01:35:00,
2013-08-25 21:50:00,78.6,76.0,29.95,East,89,0.0,1.0,92,0.00,,,0.17,weatherlink.com 1.10,2013-08-26 01:50:00,
2013-08-25 22:05:00,78.3,76.0,29.95,East,89,0.0,0.0,93,0.00,,,0.17,weatherlink.com 1.10,2013-08-26 02:05:00,
2013-08-25 22:20:00,78.6,77.0,29.95,East,89,0.0,1.0,93,0.00,,,0.17,weatherlink.com 1.10,2013-08-26 02:20:00,
2013-08-25 22:35:00,78.5,76.0,29.95,East,89,0.0,1.0,93,0.00,,,0.17,weatherlink.com 1.10,2013-08-26 02:35:00,
2013-08-25 22:50:00,78.4,76.0,29.95,East,89,0.0,1.0,93,0.00,,,0.17,weatherlink.com 1.10,2013-08-26 02:50:00,
2013-08-25 23:05:00,78.5,76.0,29.95,SE,136,0.0,2.0,93,0.00,,,0.17,weatherlink.com 1.10,2013-08-26 03:05:00,
2013-08-25 23:20:00,78.6,76.0,29.95,SE,131,0.0,1.0,92,0.00,,,0.17,weatherlink.com 1.10,2013-08-26 03:20:00,
2013-08-25 23:35:00,78.6,76.0,29.94,SE,140,0.0,1.0,92,0.00,,,0.17,weatherlink.com 1.10,2013-08-26 03:35:00,
2013-08-25 23:50:00,78.4,76.0,29.93,SE,139,0.0,0.0,92,0.00,,,0.17,weatherlink.com 1.10,2013-08-26 03:50:00,